星链-35669(STARLINK-35669)

导读 | 豆包AI

STARLINK-35669是美国太空探索技术公司SpaceX于2025年11月8日发射的Starlink星链互联网卫星,属于下一代V3卫星序列,是全球低轨卫星互联网星座的组成部分。星链项目旨在为全球偏远、基础设施匮乏地区提供高速卫星互联网接入,该批次V3卫星支持千兆级通信,相比前代大幅提升网络容量,可进一步降低延迟,为全球超六百万用户提供更稳定高速的宽带服务。

基本信息
目录编号:
66396
目录名称:
STARLINK-35669
国际标识:
2025-257S
轨道中心:
EARTH
卫星名称:
星链-35669
卫星全名:
星链-35669(STARLINK-35669)
卫星状态:
在轨 (已飞行126 天)
发射日期:
2025-11-08 UTC
国别 :
美国 (US)
星等 :
--
轨道信息
数据来源 国际轨道数据
星历时间: 2026-03-14T01:21:27+0800
13小时前
查看轨道信息
半长轴: 6853.293km
偏心率: 0.0001501
轨道倾角: 53.159°
近地点辐角 80.837°
升交点赤经 198.100°
平近点角 279.280°
近地点: 474.127km
远地点: 476.185km
周期: 94.104分钟
每日圈数: 15.302199
详细信息
固有亮度:
5
最大亮度:
2.5
卫星平台:
Starlink V1.0
覆盖范围:
全球
运营商:
太空探索技术公司
运营商所在国:
美国
制造商(研发单位):
太空探索技术公司
制造商所在国:
美国
使用方式:
暂无
卫星简介
Starlink 计划是 SpaceX 推出的全球卫星互联网项目,通过发射低轨道卫星,为全球尤其是偏远地区提供高速、低延迟的互联网服务。自 2019 年起,Starlink 已部署数千颗卫星,旨在缩小全球数字鸿沟,推动互联网普及。该项目还为军事、航空等行业提供通信支持,带来广泛经济效益。
2D轨道图
3D轨道图
轨道高度分析图
轨道倾角分析图
轨道综合分析图
查看轨道综合分析图